RA35829 UUML-UUDD

Flight info

Callsign RA35829
Flight time 0h 20m
Altitude 3000
Route RAGSE/ALGOI
Aircraft R44/L-S/L

Departure

Time 2026-04-30 19:56
Airport Severka Airfield (UUML)

Arrival

Time 2026-04-30 20:16
Airport Domodedovo International Airport (UUDD)
Time Latitude Longitude Altitude Speed Heading
2026-04-30 19:48 55.20588 38.67549 427 ft 0 kts 335°
2026-04-30 19:51 55.20589 38.67548 427 ft 0 kts 348°
2026-04-30 19:53 55.20588 38.67545 428 ft 0 kts 37°
2026-04-30 19:53 55.20593 38.67545 427 ft 0 kts 10°
2026-04-30 19:54 55.20593 38.67544 427 ft 0 kts 21°
2026-04-30 19:54 55.20594 38.67545 430 ft 2 kts
2026-04-30 19:54 55.20565 38.67537 428 ft 9 kts 180°
2026-04-30 19:54 55.20559 38.67542 427 ft 0 kts 194°
2026-04-30 19:55 55.20558 38.67542 428 ft 1 kts 195°
2026-04-30 19:55 55.20558 38.67543 427 ft 0 kts 212°
2026-04-30 19:55 55.20555 38.67547 454 ft 8 kts 219°
2026-04-30 19:55 55.20521 38.67524 689 ft 17 kts 316°
2026-04-30 19:56 55.20591 38.67312 1084 ft 36 kts 297°
2026-04-30 19:56 55.20654 38.66616 1414 ft 71 kts 275°
2026-04-30 19:56 55.20555 38.65890 1923 ft 57 kts 247°
2026-04-30 19:56 55.20553 38.65332 2431 ft 57 kts 300°
2026-04-30 19:57 55.20540 38.64513 2846 ft 69 kts 280°
2026-04-30 19:57 55.20708 38.63660 3112 ft 81 kts 297°
2026-04-30 19:57 55.20908 38.62587 3130 ft 101 kts 288°
2026-04-30 19:57 55.21088 38.61322 2916 ft 115 kts 287°
2026-04-30 19:58 55.21272 38.59829 2211 ft 131 kts 278°
2026-04-30 19:58 55.21435 38.58346 2006 ft 110 kts 286°
2026-04-30 19:58 55.21629 38.57086 1986 ft 104 kts 286°
2026-04-30 19:58 55.21808 38.55803 2012 ft 100 kts 284°
2026-04-30 19:59 55.21936 38.54596 2002 ft 105 kts 285°
2026-04-30 19:59 55.22075 38.53301 2034 ft 101 kts 283°
2026-04-30 19:59 55.22484 38.51007 2182 ft 96 kts 296°
2026-04-30 20:00 55.22761 38.49877 2160 ft 100 kts 296°
2026-04-30 20:00 55.23055 38.48802 2263 ft 94 kts 300°
2026-04-30 20:00 55.23370 38.47754 2252 ft 101 kts 299°
2026-04-30 20:00 55.23698 38.46595 2212 ft 102 kts 297°
2026-04-30 20:01 55.24219 38.44346 2367 ft 100 kts 288°
2026-04-30 20:01 55.24443 38.43139 2418 ft 98 kts 289°
2026-04-30 20:01 55.24701 38.42169 2815 ft 80 kts 304°
2026-04-30 20:02 55.25334 38.40166 2801 ft 105 kts 304°
2026-04-30 20:02 55.25740 38.39131 2781 ft 101 kts 308°
2026-04-30 20:03 55.26618 38.37049 2570 ft 102 kts 307°
2026-04-30 20:03 55.26849 38.36068 2934 ft 82 kts 316°
2026-04-30 20:03 55.27303 38.35457 3164 ft 84 kts 321°
2026-04-30 20:03 55.27522 38.34529 3441 ft 90 kts 273°
2026-04-30 20:04 55.27187 38.33375 3413 ft 117 kts 234°
2026-04-30 20:04 55.26588 38.32214 3049 ft 127 kts 224°
2026-04-30 20:04 55.25962 38.31065 2982 ft 112 kts 226°
2026-04-30 20:05 55.24837 38.28974 2884 ft 116 kts 225°
2026-04-30 20:05 55.24246 38.27934 2763 ft 116 kts 226°
2026-04-30 20:05 55.23380 38.25669 2739 ft 110 kts 245°
2026-04-30 20:06 55.23028 38.24428 2802 ft 101 kts 243°
2026-04-30 20:06 55.22854 38.23437 3209 ft 82 kts 278°
2026-04-30 20:06 55.22809 38.22245 3108 ft 109 kts 264°
2026-04-30 20:06 55.22738 38.20945 3124 ft 102 kts 275°
2026-04-30 20:07 55.22791 38.19717 3272 ft 94 kts 278°
2026-04-30 20:07 55.22912 38.18539 3273 ft 104 kts 282°
2026-04-30 20:07 55.23232 38.16020 3185 ft 104 kts 284°
2026-04-30 20:08 55.23377 38.14756 3115 ft 107 kts 280°
2026-04-30 20:08 55.23511 38.13417 2889 ft 112 kts 282°
2026-04-30 20:08 55.23707 38.12140 2863 ft 103 kts 287°
2026-04-30 20:08 55.23940 38.10988 2896 ft 100 kts 294°
2026-04-30 20:09 55.24232 38.09878 2923 ft 99 kts 297°
2026-04-30 20:09 55.24570 38.08808 2904 ft 103 kts 301°
2026-04-30 20:09 55.25482 38.07040 2965 ft 94 kts 328°
2026-04-30 20:10 55.26623 38.05912 3094 ft 94 kts 327°
2026-04-30 20:10 55.27179 38.05237 3090 ft 98 kts 323°
2026-04-30 20:10 55.27728 38.04575 3123 ft 97 kts 326°
2026-04-30 20:11 55.28851 38.03118 3059 ft 97 kts 325°
2026-04-30 20:11 55.29433 38.02466 3020 ft 98 kts 327°
2026-04-30 20:11 55.30025 38.01786 3108 ft 94 kts 325°
2026-04-30 20:12 55.31103 38.00536 3251 ft 96 kts 327°
2026-04-30 20:12 55.31677 37.99815 3093 ft 107 kts 321°
2026-04-30 20:12 55.32271 37.98975 2851 ft 110 kts 318°
2026-04-30 20:13 55.32863 37.98169 2646 ft 109 kts 323°
2026-04-30 20:13 55.33516 37.97482 2444 ft 108 kts 329°
2026-04-30 20:13 55.34149 37.96822 2274 ft 109 kts 327°
2026-04-30 20:13 55.34792 37.96097 2050 ft 108 kts 322°
2026-04-30 20:14 55.35390 37.95307 1905 ft 106 kts 320°
2026-04-30 20:14 55.35969 37.94492 1665 ft 112 kts 319°
2026-04-30 20:14 55.36597 37.93712 1287 ft 109 kts 323°
2026-04-30 20:14 55.37220 37.93037 1123 ft 102 kts 323°
2026-04-30 20:15 55.37795 37.92397 1090 ft 96 kts 322°
2026-04-30 20:15 55.38338 37.91703 942 ft 96 kts 321°
2026-04-30 20:15 55.38891 37.91051 805 ft 92 kts 321°
2026-04-30 20:15 55.39395 37.90466 693 ft 83 kts 317°
2026-04-30 20:16 55.39829 37.89945 632 ft 67 kts 318°
2026-04-30 20:16 55.40186 37.89511 616 ft 57 kts 316°
2026-04-30 20:16 55.40473 37.89175 611 ft 44 kts 312°
2026-04-30 20:16 55.40696 37.88907 605 ft 31 kts 313°
2026-04-30 20:17 55.40884 37.88779 624 ft 31 kts 343°
2026-04-30 20:17 55.41090 37.88737 618 ft 17 kts 340°
2026-04-30 20:17 55.41119 37.88758 596 ft 0 kts 139°
2026-04-30 20:18 55.41119 37.88759 596 ft 0 kts 144°
2026-04-30 20:19 55.41119 37.88760 609 ft 5 kts 152°
2026-04-30 20:19 55.40993 37.88893 634 ft 57 kts 141°
2026-04-30 20:19 55.40406 37.89613 652 ft 85 kts 140°
2026-04-30 20:19 55.39936 37.90199 688 ft 70 kts 113°
2026-04-30 20:20 55.40058 37.90270 808 ft 14 kts 288°